TimeCDT,TemperatureF,Dew PointF,Humidity,Sea Level PressureIn,VisibilityMPH,Wind Direction,Wind SpeedMPH,Gust SpeedMPH,PrecipitationIn,Events,Conditions,WindDirDegrees,DateUTC
12:51 AM,75.0,66.0,73,29.82,10.0,SE,8.1,-,N/A,,Partly Cloudy,140,2013-05-19 05:51:00
1:51 AM,73.9,68.0,82,29.80,10.0,SE,10.4,-,N/A,,Partly Cloudy,140,2013-05-19 06:51:00
2:36 AM,73.4,69.8,88,29.85,8.0,SE,11.5,-,N/A,,Mostly Cloudy,140,2013-05-19 07:36:00
2:51 AM,73.4,69.8,88,29.85,8.0,SE,8.1,-,N/A,,Mostly Cloudy,140,2013-05-19 07:51:00
3:51 AM,73.9,70.0,87,29.78,7.0,SE,11.5,-,N/A,,Overcast,140,2013-05-19 08:51:00
4:51 AM,73.9,69.1,85,29.79,8.0,SSE,10.4,-,N/A,,Overcast,150,2013-05-19 09:51:00
5:51 AM,75.0,69.1,82,29.78,8.0,SSE,11.5,-,N/A,,Overcast,150,2013-05-19 10:51:00
6:51 AM,75.0,69.1,82,29.79,8.0,SE,10.4,-,N/A,,Overcast,140,2013-05-19 11:51:00
7:51 AM,75.9,70.0,82,29.81,8.0,SSE,11.5,-,N/A,,Overcast,150,2013-05-19 12:51:00
8:51 AM,77.0,70.0,79,29.81,8.0,SSE,13.8,18.4,N/A,,Overcast,150,2013-05-19 13:51:00
9:51 AM,81.0,70.0,69,29.80,8.0,SSE,12.7,-,N/A,,Mostly Cloudy,160,2013-05-19 14:51:00
10:38 AM,82.4,69.8,66,29.85,7.0,SSE,17.3,-,N/A,,Scattered Clouds,150,2013-05-19 15:38:00
10:51 AM,84.9,71.1,63,29.80,7.0,SSE,15.0,-,N/A,,Scattered Clouds,160,2013-05-19 15:51:00
11:51 AM,87.1,71.1,59,29.79,7.0,SE,17.3,21.9,N/A,,Scattered Clouds,140,2013-05-19 16:51:00
12:51 PM,90.0,70.0,52,29.77,8.0,SSE,18.4,24.2,N/A,,Mostly Cloudy,160,2013-05-19 17:51:00
1:51 PM,91.9,70.0,48,29.74,6.0,South,13.8,21.9,N/A,,Haze,180,2013-05-19 18:51:00
2:51 PM,95.0,69.1,43,29.72,8.0,SE,18.4,33.4,N/A,,Mostly Cloudy,140,2013-05-19 19:51:00
3:51 PM,93.0,69.1,45,29.70,10.0,SSE,13.8,-,N/A,,Mostly Cloudy,150,2013-05-19 20:51:00
4:51 PM,91.9,69.1,47,29.68,9.0,SSE,17.3,25.3,N/A,,Mostly Cloudy,150,2013-05-19 21:51:00
5:51 PM,93.0,70.0,47,29.67,10.0,SSE,15.0,-,N/A,,Mostly Cloudy,160,2013-05-19 22:51:00
6:51 PM,90.0,69.1,50,29.67,10.0,SE,20.7,-,N/A,,Partly Cloudy,130,2013-05-19 23:51:00
7:51 PM,87.1,68.0,53,29.69,10.0,SE,17.3,24.2,N/A,,Partly Cloudy,130,2013-05-20 00:51:00
8:51 PM,82.9,66.9,58,29.72,10.0,SE,18.4,-,N/A,,Scattered Clouds,130,2013-05-20 01:51:00
9:51 PM,81.0,66.9,62,29.75,10.0,SE,16.1,23.0,N/A,,Scattered Clouds,130,2013-05-20 02:51:00
10:51 PM,78.1,69.1,74,29.78,10.0,SE,12.7,-,N/A,,Scattered Clouds,130,2013-05-20 03:51:00
11:51 PM,75.9,70.0,82,29.79,10.0,SE,10.4,-,N/A,,Mostly Cloudy,130,2013-05-20 04:51:00